Regional Weather Roundup
Issued by NWS

Home | Current Version | Previous Version | Graphics & Text | Print | Product List | Glossary On
Versions: 1 2 3 4 5 6 7 8 9 10 11 12 13 14 15 16 17 18 19 20 21 22 23 24 25 26 27 28 29 30 31 32 33 34 35 36 37 38 39 40 41 42 43 44 45 46 47 48 49 50
661
ASUS44 KLIX 220710
RWRLA
LOUISIANA WEATHER ROUNDUP
NATIONAL WEATHER SERVICE NEW ORLEANS LA
200 AM CDT FRI AUG 22 2014

NOTE: "FAIR" INDICATES FEW OR NO CLOUDS BELOW 12,000 FEET WITH NO
      SIGNIFICANT WEATHER AND/OR OBSTRUCTIONS TO VISIBILITY.
      SKY/WX - SKY CONDITION AND SIGNIFICANT WEATHER.
      TMP - AIR TEMPERATURE.    DP   - DEWPOINT TEMPERATURE.
      RH  - RELATIVE HUMIDITY.  PRES - PRESSURE.
      HX  - HEAT INDEX.         WCI  - WIND CHILL INDEX.

*  THESE STATIONS ARE NOT NWS OR FAA STATIONS AND ARE NOT UNDER
   NWS QUALITY CONTROL.

LAZ040-048-061>063-065-066-069-220800-
SOUTHEAST LOUISIANA

CITY           SKY/WX    TMP DP  RH WIND       PRES   REMARKS
N.O. AUDUBON     N/A     79  75  89 MISG        N/A
N.O. INTL ARPT PTCLDY    77  73  87 SW3       30.07F
N.O. LAKEFRONT PTCLDY    80  74  81 SW6       30.08F
N.O. DOWNTOWN* FAIR      81  70  69 S3        30.08F
SLIDELL        PTCLDY    75  72  90 N5        30.07S
BATON ROUGE    PTCLDY    74  73  97 CALM      30.08F FOG
BOOTHVILLE     CLEAR     81  77  88 CALM      30.08F
BELLE CHASSE   PTCLDY    75  71  87 CALM      30.07F
BOGALUSA*        N/A     76  72  87 CALM      30.09S
GALLIANO*      NOT AVBL
NEW ROADS*     FAIR      73  72  98 CALM      30.08F
GONZALES*      FAIR      75  75 100 CALM      30.08S
HAMMOND*       PTCLDY    75  72  88 CALM      30.09F
HOUMA*         CLEAR     74  71  91 CALM      30.08F
PORT FOURCHON* SUNNY     84  77  79 CALM      30.10S

$$

LAZ041-044-053-054-220800-
SOUTHWEST LOUISIANA

CITY           SKY/WX    TMP DP  RH WIND       PRES   REMARKS
LAKE CHARLES   PTCLDY    78  76  93 CALM      30.07S
LAFAYETTE      CLEAR     76  73  91 CALM      30.07F
PATTERSON      CLEAR     75  73  94 CALM      30.11S
SALT POINT       N/A     81  77  88 SE3       30.07F
NEW IBERIA     CLEAR     75  73  93 CALM      30.08F
CHENAULT AIRPK PTCLDY    77  75  94 CALM      30.08S

$$

LAZ027-028-220800-
CENTRAL LOUISIANA

CITY           SKY/WX    TMP DP  RH WIND       PRES   REMARKS
FORT POLK      MOCLDY    73  73 100 SE6       30.08S
ALEXANDRIA INT MOCLDY    73  72  96 CALM      30.06F
ALEXANDRIA     MOCLDY    74  71  91 CALM      30.07F

$$

LAZ001-002-220800-
NORTHWEST LOUISIANA

CITY           SKY/WX    TMP DP  RH WIND       PRES   REMARKS
SHREVEPORT     PTCLDY    77  75  93 S6        30.04S
BARKSDALE AFB  CLEAR     76  74  94 S8        30.04F
DTN SHREVEPORT CLEAR     77  32  19 SE5       30.04S

$$

LAZ014-016-220800-
NORTHEAST LOUISIANA

CITY           SKY/WX    TMP DP  RH WIND       PRES   REMARKS
MONROE         CLEAR     74  71  91 S3        30.07S
TALLULAH       CLEAR     73  71  93 CALM      30.06F

$$




USA.gov is the U.S. government's official web portal to all federal, state and local government web resources and services.